This demonstration page uses our WeatherBlox Daily Observations layout. Learn more.

Hourly Observations for August 21, 2019

Temp ( °F °C ) Dew Point ( °F °C ) Humidity (%) Winds ( mph kmh ) Pressure ( in mb ) Visibility ( mi km ) Precip ( " mm )
12:15 am 00:15 Partly Cloudy 77 25 76 24.6 98 98 ENE 3 6 29.88 1012 7 11.265408 0 0
12:35 am 00:35 Partly Cloudy 76 24.7 76 24.4 98 98 Calm 29.88 1012 7 11.265408 0 0
12:55 am 00:55 Clear 76 24.3 75 24.1 99 99 E 3 6 29.88 1012 7 11.265408 0 0
1:15 am 01:15 Partly Cloudy with Nearby Thunderstorms 75 23.9 75 23.9 100 100 NE 6 9 29.85 1011 4 6.437376 0 0
1:35 am 01:35 Mostly Cloudy with Mist and Fog 74 23.6 74 23.6 100 100 ENE 7 11 29.83 1010 4 6.437376 0 0
1:55 am 01:55 Mostly Cloudy with Nearby Thunderstorms 75 23.8 75 23.8 100 100 NNE 10 17 29.83 1010 3 4.828032 0 0
2:15 am 02:15 Cloudy with Mist and Fog 76 24.2 76 24.2 100 100 ENE 13 20 29.85 1011 3 4.828032 0 0
2:35 am 02:35 Cloudy with Mist and Fog 76 24.5 76 24.5 100 100 NE 30 48 29.91 1013 5 8.04672 0 0
2:55 am 02:55 Mostly Cloudy 71 21.6 63 17 75 75 NE 23 37 29.94 1014 10 16.09344 0 0
3:15 am 03:15 Partly Cloudy 70 20.9 62 16.9 78 78 ENE 17 28 29.91 1013 10 16.09344 0 0
3:35 am 03:35 Clear 69 20.5 63 17 80 80 ENE 10 17 29.91 1013 10 16.09344 0 0
3:55 am 03:55 Clear with Nearby Thunderstorms 69 20.3 63 17.1 82 82 E 8 13 29.91 1013 10 16.09344 0 0
4:15 am 04:15 Clear 68 20 63 17.4 85 85 Calm 29.91 1013 10 16.09344 0 0
4:35 am 04:35 Clear with Nearby Thunderstorms 67 19.5 64 17.5 88 88 E 8 13 29.91 1013 10 16.09344 0 0
4:55 am 04:55 Clear 67 19.6 64 17.5 88 88 E 6 9 29.91 1013 10 16.09344 0 0
5:15 am 05:15 Clear 68 20 64 17.8 87 87 ESE 8 13 29.94 1014 10 16.09344 0 0
5:35 am 05:35 Partly Cloudy 68 20.1 64 17.8 87 87 NNE 8 13 30.06 1018 10 16.09344 0 0
5:55 am 05:55 Mostly Cloudy 69 20.6 64 18 85 85 NW 13 20 30.06 1018 10 16.09344 0 0
6:15 am 06:15 Cloudy 68 20 64 18 88 88 NW 12 19 30.06 1018 10 16.09344 0 0
6:35 am 06:35 Cloudy 68 20.2 64 18 87 87 N 6 9 30.06 1018 10 16.09344 0 0
6:55 am 06:55 Partly Cloudy 67 19.7 65 18.1 91 91 NE 8 13 30.03 1017 10 16.09344 0 0
7:15 am 07:15 Sunny 67 19.5 65 18.2 92 92 NNE 12 19 30.03 1017 10 16.09344 0 0
7:35 am 07:35 Partly Cloudy 67 19.4 65 18.4 94 94 NE 7 11 30.03 1017 10 16.09344 0 0
7:55 am 07:55 Partly Cloudy 68 20 65 18.6 92 92 NE 9 15 30.03 1017 10 16.09344 0 0
8:15 am 08:15 Partly Cloudy 69 20.8 65 18.6 87 87 NE 6 9 30.03 1017 10 16.09344 0 0
8:35 am 08:35 Partly Cloudy with Nearby Thunderstorms 70 21 65 18.6 86 86 E 18 30 29.97 1015 10 16.09344 0 0
8:55 am 08:55 Partly Cloudy 69 20.3 66 18.7 91 91 ESE 23 37 29.97 1015 10 16.09344 0 0
9:15 am 09:15 Partly Cloudy 68 20.1 66 18.9 93 93 ESE 20 31 29.97 1015 10 16.09344 0 0
9:35 am 09:35 Sunny 69 20.7 67 19.2 91 91 ESE 23 37 29.94 1014 10 16.09344 0 0
9:55 am 09:55 Partly Cloudy 70 20.9 67 19.5 92 92 ESE 21 33 29.94 1014 10 16.09344 0 0
10:15 am 10:15 Partly Cloudy 70 21.1 67 19.6 91 91 E 12 19 30 1016 10 16.09344 0 0
10:35 am 10:35 Partly Cloudy 72 22.1 68 20 88 88 ESE 10 17 29.97 1015 10 16.09344 0 0
10:55 am 10:55 Partly Cloudy 72 22.2 67 19.6 85 85 SE 12 19 29.97 1015 10 16.09344 0 0
11:15 am 11:15 Partly Cloudy 74 23.1 68 19.8 82 82 SE 8 13 30 1016 10 16.09344 0 0
11:35 am 11:35 Mostly Cloudy 75 23.9 67 19.7 77 77 SE 9 15 30 1016 10 16.09344 0 0
11:55 am 11:55 Cloudy 75 24 67 19.7 77 77 SE 9 15 29.97 1015 10 16.09344 0 0
12:15 pm 12:15 Cloudy 75 23.7 67 19.7 78 78 ESE 8 13 30 1016 10 16.09344 0 0
12:35 pm 12:35 Cloudy 75 23.7 68 20 80 80 ESE 7 11 30 1016 10 16.09344 0 0
12:55 pm 12:55 Cloudy 76 24.5 69 20.5 78 78 Calm 29.97 1015 10 16.09344 0 0
1:15 pm 13:15 Cloudy 76 24.3 68 20.1 77 77 NNE 5 7 29.97 1015 10 16.09344 0 0
1:35 pm 13:35 Mostly Cloudy 77 24.9 69 20.7 78 78 NNW 6 9 29.94 1014 10 16.09344 0 0
1:55 pm 13:55 Cloudy 75 23.7 69 20.4 82 82 NNE 12 19 29.94 1014 10 16.09344 0 0
2:15 pm 14:15 Mostly Cloudy 76 24.5 69 20.3 78 78 NNE 15 24 29.94 1014 10 16.09344 0 0
2:35 pm 14:35 Mostly Cloudy 76 24.6 69 20.3 77 77 NE 14 22 29.94 1014 10 16.09344 0 0
2:55 pm 14:55 Cloudy 74 23.5 68 20.2 82 82 NE 15 24 29.97 1015 10 16.09344 0 0
3:15 pm 15:15 Cloudy 73 22.8 68 19.8 83 83 NE 15 24 30 1016 10 16.09344 0 0
3:35 pm 15:35 Cloudy 74 23.6 68 20.1 81 81 NE 13 20 29.97 1015 10 16.09344 0 0
3:55 pm 15:55 Mostly Cloudy 75 24 69 20.3 80 80 NE 10 17 29.94 1014 10 16.09344 0 0
4:15 pm 16:15 Mostly Cloudy 74 23.6 69 20.3 82 82 ENE 10 17 29.97 1015 10 16.09344 0 0
4:35 pm 16:35 Mostly Cloudy 76 24.3 68 20.2 78 78 ENE 12 19 29.94 1014 10 16.09344 0 0
4:55 pm 16:55 Partly Cloudy 76 24.5 68 20 76 76 ENE 10 17 29.94 1014 10 16.09344 0 0
5:15 pm 17:15 Sunny 76 24.4 67 19.5 74 74 NE 8 13 29.94 1014 10 16.09344 0 0
5:35 pm 17:35 Sunny 76 24.2 67 19.2 74 74 ENE 7 11 29.94 1014 10 16.09344 0 0
5:55 pm 17:55 Partly Cloudy 76 24.3 67 19.5 75 75 ENE 8 13 29.94 1014 10 16.09344 0 0
6:15 pm 18:15 Mostly Cloudy 76 24.3 68 19.9 77 77 E 9 15 29.94 1014 10 16.09344 0 0
6:35 pm 18:35 Cloudy 74 23.5 68 19.8 80 80 ENE 10 17 29.97 1015 10 16.09344 0 0
6:55 pm 18:55 Cloudy 72 22.4 68 19.8 85 85 ENE 14 22 29.97 1015 10 16.09344 0 0
7:15 pm 19:15 Cloudy 72 22 67 19.5 86 86 ENE 12 19 29.97 1015 10 16.09344 0 0
7:35 pm 19:35 Mostly Cloudy 70 21.1 67 19.5 91 91 ENE 14 22 29.97 1015 10 16.09344 0 0
7:55 pm 19:55 Partly Cloudy 69 20.7 67 19.5 93 93 ENE 10 17 29.97 1015 10 16.09344 0 0
8:15 pm 20:15 Mostly Cloudy 69 20.6 67 19.5 93 93 E 9 15 29.97 1015 10 16.09344 0 0
8:35 pm 20:35 Cloudy 69 20.5 67 19.5 94 94 E 10 17 29.97 1015 10 16.09344 0 0
8:55 pm 20:55 Mostly Cloudy 68 20 67 19.2 95 95 E 9 15 30 1016 10 16.09344 0 0
9:15 pm 21:15 Clear 67 19.5 66 19 97 97 E 7 11 30 1016 10 16.09344 0 0
9:35 pm 21:35 Clear 67 19.3 66 18.8 97 97 E 6 9 30 1016 10 16.09344 0 0
9:55 pm 21:55 Clear 66 18.8 65 18.5 98 98 E 5 7 30 1016 10 16.09344 0 0
10:15 pm 22:15 Clear 65 18.5 65 18.4 99 99 E 5 7 30 1016 10 16.09344 0 0
10:35 pm 22:35 Clear 65 18.2 65 18.2 100 100 ENE 6 9 30.03 1017 10 16.09344 0 0
10:55 pm 22:55 Clear 65 18.2 65 18.2 100 100 E 6 9 30.03 1017 10 16.09344 0 0
11:15 pm 23:15 Clear 65 18.1 64 17.9 99 99 E 6 9 30.03 1017 10 16.09344 0 0
11:35 pm 23:35 Clear 64 17.8 64 17.7 99 99 E 6 9 30.03 1017 10 16.09344 0 0
11:55 pm 23:55 Clear 64 17.6 64 17.5 99 99 ESE 6 9 30.03 1017 10 16.09344 0 0

Powered by AerisWeather